• In Belgien
  • Länderverzeichnis
  • Für 7 Tage
  • Wassertemperatur
  • Satellitenkarten
  • Wetterkarte
  • Widgets
  • user-avatar
    Anmelden

    Stündliche Wetter Sabaudia

    Heute, 21 September, Freitag

    Zeit Temperatur Niederschläge Wind Luftdruck Luftfeuchtigkeit
    00:00 +18°C° 0 mm 1 m/S 739 mmHg 72%
    01:00 +16°C° 0 mm 1 m/S 739 mmHg 73%
    02:00 +16°C° 0 mm 1 m/S 739 mmHg 75%
    03:00 +16°C° 0 mm 1 m/S 738 mmHg 77%
    04:00 +15°C° 0 mm 1 m/S 738 mmHg 78%
    05:00 +15°C° 0 mm 1 m/S 738 mmHg 80%
    06:00 +16°C° 0 mm 1 m/S 738 mmHg 78%
    07:00 +17°C° 0 mm 2 m/S 738 mmHg 76%
    08:00 +17°C° 0 mm 2 m/S 738 mmHg 75%
    09:00 +19°C° 0 mm 2 m/S 738 mmHg 69%
    10:00 +21°C° 0 mm 2 m/S 738 mmHg 63%
    11:00 +24°C° 0 mm 3 m/S 738 mmHg 57%
    12:00 +25°C° 0 mm 3 m/S 738 mmHg 55%
    13:00 +26°C° 0 mm 3 m/S 737 mmHg 52%
    14:00 +27°C° 0 mm 3 m/S 737 mmHg 49%
    15:00 +26°C° 0 mm 3 m/S 736 mmHg 52%
    16:00 +26°C° 0 mm 3 m/S 736 mmHg 55%
    17:00 +25°C° 0 mm 2 m/S 736 mmHg 57%
    18:00 +24°C° 0 mm 3 m/S 736 mmHg 62%
    19:00 +21°C° 0 mm 3 m/S 735 mmHg 67%
    20:00 +19°C° 0 mm 3 m/S 735 mmHg 71%
    21:00 +19°C° 0 mm 3 m/S 735 mmHg 71%
    22:00 +18°C° 0 mm 3 m/S 735 mmHg 70%
    23:00 +18°C° 0 mm 3 m/S 735 mmHg 70%

    Morgen, 22 September, Samstag

    Zeit Temperatur Niederschläge Wind Luftdruck Luftfeuchtigkeit
    00:00 +18°C° 0 mm 3 m/S 734 mmHg 70%
    01:00 +17°C° 0 mm 3 m/S 734 mmHg 69%
    02:00 +17°C° 0 mm 3 m/S 734 mmHg 69%
    03:00 +17°C° 0 mm 4 m/S 734 mmHg 67%
    04:00 +17°C° 0 mm 4 m/S 734 mmHg 65%
    05:00 +17°C° 0 mm 4 m/S 734 mmHg 63%
    06:00 +15°C° 0.2 mm 5 m/S 735 mmHg 68%
    07:00 +15°C° 0.2 mm 5 m/S 736 mmHg 73%
    08:00 +14°C° 0.2 mm 6 m/S 736 mmHg 79%
    09:00 +13°C° 0.6 mm 5 m/S 737 mmHg 81%
    10:00 +12°C° 0.6 mm 4 m/S 738 mmHg 83%
    11:00 +11°C° 0.6 mm 3 m/S 738 mmHg 85%
    12:00 +11°C° 0.6 mm 3 m/S 739 mmHg 86%
    13:00 +11°C° 0.6 mm 3 m/S 739 mmHg 86%
    14:00 +11°C° 0.6 mm 3 m/S 739 mmHg 87%
    15:00 +11°C° 0.3 mm 3 m/S 739 mmHg 86%
    16:00 +11°C° 0.3 mm 3 m/S 738 mmHg 86%
    17:00 +11°C° 0.3 mm 3 m/S 738 mmHg 85%
    18:00 +10°C° 0 mm 3 m/S 738 mmHg 87%
    19:00 +10°C° 0 mm 3 m/S 738 mmHg 89%
    20:00 +9°C° 0 mm 3 m/S 738 mmHg 91%
    21:00 +9°C° 0 mm 3 m/S 738 mmHg 90%
    22:00 +8°C° 0 mm 3 m/S 738 mmHg 89%
    23:00 +8°C° 0 mm 3 m/S 738 mmHg 87%

    übermorgen, 23 September, Sonntag

    Zeit Temperatur Niederschläge Wind Luftdruck Luftfeuchtigkeit
    00:00 +8°C° 0 mm 3 m/S 738 mmHg 87%
    01:00 +8°C° 0 mm 3 m/S 738 mmHg 87%
    02:00 +8°C° 0 mm 3 m/S 738 mmHg 87%
    03:00 +7°C° 0 mm 4 m/S 739 mmHg 87%
    04:00 +7°C° 0 mm 4 m/S 739 mmHg 86%
    05:00 +6°C° 0 mm 4 m/S 739 mmHg 86%
    06:00 +7°C° 0 mm 4 m/S 739 mmHg 83%
    07:00 +8°C° 0 mm 4 m/S 739 mmHg 80%
    08:00 +8°C° 0 mm 5 m/S 740 mmHg 77%
    09:00 +10°C° 0 mm 5 m/S 740 mmHg 70%
    10:00 +13°C° 0 mm 6 m/S 740 mmHg 62%
    11:00 +14°C° 0 mm 6 m/S 740 mmHg 54%
    12:00 +15°C° 0 mm 6 m/S 740 mmHg 52%
    13:00 +16°C° 0 mm 6 m/S 740 mmHg 49%
    14:00 +16°C° 0 mm 6 m/S 739 mmHg 46%
    15:00 +16°C° 0 mm 5 m/S 739 mmHg 49%
    16:00 +17°C° 0 mm 4 m/S 739 mmHg 52%
    17:00 +16°C° 0 mm 3 m/S 738 mmHg 55%
    18:00 +14°C° 0 mm 3 m/S 738 mmHg 61%
    19:00 +12°C° 0 mm 3 m/S 738 mmHg 66%
    20:00 +11°C° 0 mm 3 m/S 738 mmHg 71%
    21:00 +11°C° 0 mm 3 m/S 737 mmHg 71%
    22:00 +11°C° 0 mm 3 m/S 737 mmHg 71%
    23:00 +11°C° 0 mm 3 m/S 736 mmHg 72%

    24 September, Montag

    Zeit Temperatur Niederschläge Wind Luftdruck Luftfeuchtigkeit
    00:00 +11°C° 0 mm 4 m/S 735 mmHg 71%
    01:00 +11°C° 0 mm 4 m/S 734 mmHg 71%
    02:00 +11°C° 0 mm 4 m/S 733 mmHg 71%
    03:00 +12°C° 0.7 mm 5 m/S 732 mmHg 71%
    04:00 +12°C° 0.7 mm 5 m/S 730 mmHg 70%
    05:00 +11°C° 0.7 mm 6 m/S 729 mmHg 70%
    06:00 +13°C° 0.4 mm 6 m/S 728 mmHg 69%
    07:00 +14°C° 0.4 mm 7 m/S 727 mmHg 68%
    08:00 +13°C° 0.4 mm 8 m/S 725 mmHg 67%
    09:00 +15°C° 0.1 mm 8 m/S 725 mmHg 69%
    10:00 +15°C° 0.1 mm 8 m/S 725 mmHg 70%
    11:00 +15°C° 0.1 mm 9 m/S 724 mmHg 71%
    12:00 +14°C° 0.4 mm 10 m/S 724 mmHg 72%
    13:00 +14°C° 0.4 mm 10 m/S 723 mmHg 73%
    14:00 +14°C° 0.4 mm 11 m/S 723 mmHg 74%
    15:00 +12°C° 0.3 mm 12 m/S 723 mmHg 74%
    16:00 +10°C° 0.3 mm 13 m/S 724 mmHg 74%
    17:00 +9°C° 0.3 mm 14 m/S 725 mmHg 74%
    18:00 +8°C° 0.2 mm 13 m/S 726 mmHg 74%
    19:00 +8°C° 0.2 mm 13 m/S 727 mmHg 74%
    20:00 +8°C° 0.2 mm 12 m/S 728 mmHg 74%
    21:00 +8°C° 0.2 mm 11 m/S 730 mmHg 75%
    22:00 +7°C° 0.2 mm 11 m/S 731 mmHg 75%
    23:00 +7°C° 0.2 mm 11 m/S 732 mmHg 76%

    25 September, Dienstag

    Zeit Temperatur Niederschläge Wind Luftdruck Luftfeuchtigkeit
    00:00 +7°C° 0.1 mm 11 m/S 733 mmHg 76%
    01:00 +6°C° 0.1 mm 11 m/S 734 mmHg 75%
    02:00 +6°C° 0.1 mm 11 m/S 735 mmHg 75%
    03:00 +6°C° 0.1 mm 10 m/S 736 mmHg 74%
    04:00 +5°C° 0.1 mm 10 m/S 736 mmHg 73%
    05:00 +5°C° 0.1 mm 10 m/S 737 mmHg 73%
    06:00 +5°C° 0.1 mm 10 m/S 738 mmHg 73%
    07:00 +5°C° 0.1 mm 10 m/S 738 mmHg 73%
    08:00 +5°C° 0.1 mm 9 m/S 739 mmHg 73%
    09:00 +5°C° 0.1 mm 9 m/S 739 mmHg 71%
    10:00 +6°C° 0.1 mm 9 m/S 740 mmHg 68%
    11:00 +6°C° 0.1 mm 9 m/S 741 mmHg 66%
    12:00 +7°C° 0.2 mm 9 m/S 741 mmHg 62%
    13:00 +8°C° 0.2 mm 9 m/S 741 mmHg 58%
    14:00 +10°C° 0.2 mm 9 m/S 742 mmHg 54%
    15:00 +9°C° 0.1 mm 8 m/S 742 mmHg 54%
    16:00 +9°C° 0.1 mm 7 m/S 742 mmHg 53%
    17:00 +9°C° 0.1 mm 6 m/S 742 mmHg 52%
    18:00 +8°C° 0 mm 6 m/S 742 mmHg 57%
    19:00 +7°C° 0 mm 5 m/S 742 mmHg 62%
    20:00 +6°C° 0 mm 5 m/S 741 mmHg 67%
    21:00 +5°C° 0.1 mm 6 m/S 741 mmHg 68%
    22:00 +5°C° 0.1 mm 6 m/S 740 mmHg 69%
    23:00 +5°C° 0.1 mm 7 m/S 740 mmHg 69%

    26 September, Mittwoch

    Zeit Temperatur Niederschläge Wind Luftdruck Luftfeuchtigkeit
    00:00 +5°C° 0.9 mm 7 m/S 739 mmHg 75%
    01:00 +5°C° 0.9 mm 7 m/S 739 mmHg 82%
    02:00 +5°C° 0.9 mm 7 m/S 738 mmHg 88%
    03:00 +5°C° 0.4 mm 7 m/S 738 mmHg 88%
    04:00 +4°C° 0.4 mm 6 m/S 738 mmHg 87%
    05:00 +5°C° 0.4 mm 5 m/S 738 mmHg 87%
    06:00 +5°C° 0.1 mm 5 m/S 739 mmHg 87%
    07:00 +5°C° 0.1 mm 5 m/S 739 mmHg 87%
    08:00 +5°C° 0.1 mm 5 m/S 740 mmHg 88%
    09:00 +6°C° 0.1 mm 5 m/S 741 mmHg 84%
    10:00 +7°C° 0.1 mm 5 m/S 741 mmHg 80%
    11:00 +8°C° 0.1 mm 5 m/S 742 mmHg 77%
    12:00 +9°C° 0 mm 5 m/S 743 mmHg 70%
    13:00 +10°C° 0 mm 5 m/S 743 mmHg 63%
    14:00 +13°C° 0 mm 5 m/S 744 mmHg 56%
    15:00 +12°C° 0.1 mm 5 m/S 744 mmHg 59%
    16:00 +12°C° 0.1 mm 4 m/S 744 mmHg 62%
    17:00 +11°C° 0.1 mm 4 m/S 744 mmHg 65%
    18:00 +10°C° 0.1 mm 3 m/S 744 mmHg 70%
    19:00 +9°C° 0.1 mm 3 m/S 745 mmHg 76%
    20:00 +8°C° 0.1 mm 3 m/S 745 mmHg 81%
    21:00 +7°C° 0 mm 3 m/S 745 mmHg 82%
    22:00 +7°C° 0 mm 3 m/S 746 mmHg 83%
    23:00 +5°C° 0 mm 3 m/S 746 mmHg 84%
    Mehr zeigen